{"data":{"norad_id":60315,"intl_designator":"2024-133Q","name":"STARLINK-32194","alt_names":[],"object_type":"PAYLOAD","status":"ACTIVE","operator":null,"country":"US","launch_date":"2024-07-28","launch_site_code":"AFWTR","launch_vehicle":null,"mission":null,"orbit_class":"UNKNOWN","rcs_meters":null,"size_class":null,"mass_kg":null,"dimensions":null,"purposes":["comms"],"wikipedia_slug":null,"has_3d_model":false,"image_url":null,"decayed_at":null,"tle_current":{"epoch":"2026-09-21T19:05:28.800672Z","epoch_age_seconds":73733,"freshness":"FRESH","line1":"1 60315U 24133Q   26264.79547223 -.00000094  00000+0  83628-5 0  9992","line2":"2 60315  53.1595 103.4308 0001192  98.4399 261.6739 15.34387732121707","mean_motion":15.34387732,"eccentricity":0.0001192,"inclination_deg":53.1595,"raan_deg":103.4308,"arg_perigee_deg":98.4399,"mean_anomaly_deg":261.6739,"bstar":8.3628e-6,"rev_number":12170,"period_min":93.848508429029,"perigee_km":461.92427102835,"apogee_km":463.55513603448,"semimajor_km":6840.8767035314,"source":"CELESTRAK","updated_at":"2026-09-22T09:00:49.216959Z"}}}